TimeEST,TemperatureF,Dew PointF,Humidity,Sea Level PressureIn,VisibilityMPH,Wind Direction,Wind SpeedMPH,Gust SpeedMPH,PrecipitationIn,Events,Conditions,WindDirDegrees,DateUTC
12:55 AM,46.9,35.6,65,30.09,10.0,NW,8.1,17.3,N/A,,Clear,320,2012-11-24 05:55:00
1:55 AM,45.3,32.4,61,30.09,10.0,NW,16.1,21.9,N/A,,Clear,320,2012-11-24 06:55:00
2:55 AM,43.2,32.5,66,30.10,10.0,NNW,13.8,21.9,N/A,,Clear,330,2012-11-24 07:55:00
3:55 AM,41.2,31.6,69,30.10,10.0,NW,12.7,25.3,N/A,,Clear,320,2012-11-24 08:55:00
4:55 AM,39.6,30.0,69,30.11,10.0,NW,12.7,-,N/A,,Clear,310,2012-11-24 09:55:00
5:55 AM,38.1,27.5,66,30.12,10.0,NW,12.7,-,N/A,,Clear,310,2012-11-24 10:55:00
6:55 AM,36.9,27.1,68,30.14,10.0,NW,10.4,-,N/A,,Clear,320,2012-11-24 11:55:00
7:55 AM,36.5,26.4,67,30.16,10.0,NW,11.5,-,N/A,,Clear,320,2012-11-24 12:55:00
8:55 AM,37.6,25.2,61,30.17,10.0,NW,11.5,20.7,N/A,,Clear,310,2012-11-24 13:55:00
9:55 AM,39.7,21.6,48,30.20,10.0,NW,12.7,-,N/A,,Clear,320,2012-11-24 14:55:00
10:55 AM,42.4,20.5,42,30.19,10.0,WNW,11.5,-,N/A,,Clear,300,2012-11-24 15:55:00
11:55 AM,45.1,18.0,34,30.18,10.0,NW,10.4,-,N/A,,Partly Cloudy,320,2012-11-24 16:55:00
12:55 PM,46.6,17.8,32,30.15,10.0,NW,11.5,17.3,N/A,,Mostly Cloudy,310,2012-11-24 17:55:00
1:55 PM,48.7,17.6,29,30.14,10.0,NW,10.4,19.6,N/A,,Scattered Clouds,320,2012-11-24 18:55:00
2:55 PM,48.9,16.3,27,30.12,10.0,WNW,11.5,-,N/A,,Partly Cloudy,300,2012-11-24 19:55:00
3:55 PM,48.0,16.5,29,30.13,10.0,WNW,12.7,-,N/A,,Partly Cloudy,290,2012-11-24 20:55:00
4:55 PM,46.2,16.5,31,30.14,10.0,NW,11.5,19.6,N/A,,Partly Cloudy,320,2012-11-24 21:55:00
5:55 PM,43.3,18.3,37,30.15,10.0,NW,5.8,-,N/A,,Clear,320,2012-11-24 22:55:00
6:55 PM,41.4,19.0,41,30.16,10.0,NW,5.8,-,N/A,,Clear,320,2012-11-24 23:55:00
7:55 PM,40.5,18.7,42,30.17,10.0,NW,4.6,-,N/A,,Clear,320,2012-11-25 00:55:00
8:55 PM,39.4,19.2,44,30.17,10.0,NW,6.9,-,N/A,,Clear,320,2012-11-25 01:55:00
9:55 PM,38.1,18.1,45,30.17,10.0,NW,6.9,-,N/A,,Clear,310,2012-11-25 02:55:00
10:55 PM,36.3,18.5,48,30.16,10.0,NW,4.6,-,N/A,,Clear,310,2012-11-25 03:55:00
11:55 PM,35.4,18.7,51,30.14,10.0,Calm,Calm,-,N/A,,Clear,0,2012-11-25 04:55:00